Date String (YYYY-MM-DD hh:mm:ss) UTC,Instrument flags,absolute air pressure of the measurement (hPa),sample flow rate (lpm),inlet stack bypass flow (lpm),air temperature of the measurement (°C),ambient temperature measured by the external sensor (°C),aerosol sample conditioner tube jacket temperature (°C),OPC LED temperature (°C),internal box temperature (°C),relative humidity of the measurement (%),span deviation,mass concentration of particles derived from Lorenz-Mie calculation of OPC scattering (μg/m³),mass concentration of particles derived from Lorenz-Mie calculation of OPC scattering (μg/m³),mass concentration of particles derived from Lorenz-Mie calculation of OPC scattering (μg/m³)
DateTimeUTC,F1_M11,P_M11,Q1_M11,Q2_M11,T1_M11,T2_M11,T3_M11,T4_M11,T5_M11,U1_M11,ZSPAN_M11,X0_M11,X2_M11,X1_M11
2023-11-01 17:00:00,SystemResetWarning,0832.6,5.00,000.00,022.4,021.5,000.0,030.7,023.8,10.7,0000.0,0004.57,0002.07,0001.76
2023-11-01 17:01:00,SystemResetWarning,0832.5,5.00,000.00,022.4,021.5,000.0,030.7,023.8,10.8,0000.0,0004.57,0002.10,0001.78
2023-11-01 17:02:00,SystemResetWarning,0832.5,5.00,000.00,022.4,021.5,000.0,030.7,023.8,10.9,0000.0,0004.63,0002.13,0001.79
2023-11-01 17:03:00,SystemResetWarning,0832.6,5.01,000.00,022.4,021.5,000.0,030.7,023.8,11.6,0000.0,0004.53,0002.11,0001.79
2023-11-01 17:04:00,SystemResetWarning,0832.6,5.00,000.00,022.4,021.5,000.0,030.7,023.8,11.2,0000.0,0004.40,0002.11,0001.80
2023-11-01 17:05:00,SystemResetWarning,0832.6,5.01,000.00,022.4,021.5,000.0,030.7,023.9,10.8,0000.0,0004.08,0002.09,0001.81
2023-11-01 17:06:00,SystemResetWarning,0832.6,5.00,000.00,022.4,021.5,000.0,030.7,023.8,10.7,0000.0,0004.06,0002.10,0001.83
2023-11-01 17:07:00,SystemResetWarning,0832.5,5.00,000.00,022.4,021.5,000.0,030.7,023.8,10.7,0000.0,0004.05,0002.10,0001.85
2023-11-01 17:08:00,SystemResetWarning,0832.5,5.00,000.00,022.4,021.5,000.0,030.7,023.9,10.4,0000.0,0004.10,0002.13,0001.86
2023-11-01 17:09:00,SystemResetWarning,0832.5,5.00,000.00,022.4,021.6,000.0,030.7,023.9,10.3,0000.0,0002.78,0002.14,0001.86
2023-11-01 17:10:00,SystemResetWarning,0832.5,5.00,000.00,022.4,021.6,000.0,030.8,023.9,10.6,0000.0,0002.78,0002.12,0001.83
2023-11-01 17:11:00,SystemResetWarning,0832.6,5.00,000.00,022.4,021.5,000.0,030.8,023.9,11.3,0000.0,0003.02,0002.09,0001.79
2023-11-01 17:12:00,SystemResetWarning,0832.5,5.00,000.00,022.4,021.5,000.0,030.8,023.9,10.9,0000.0,0004.13,0002.08,0001.77
2023-11-01 17:13:00,SystemResetWarning,0832.6,4.99,000.00,022.4,021.6,000.0,030.8,023.9,10.7,0000.0,0004.15,0002.06,0001.75
2023-11-01 17:14:00,SystemResetWarning,0832.5,5.00,000.00,022.5,021.6,000.0,030.8,023.9,10.3,0000.0,0004.02,0001.99,0001.73
2023-11-01 17:15:00,SystemResetWarning,0832.5,5.00,000.00,022.5,021.6,000.0,030.8,023.9,10.1,0000.0,0003.93,0001.95,0001.71
2023-11-01 17:16:00,SystemResetWarning,0832.5,5.00,000.00,022.5,021.6,000.0,030.8,023.9,11.4,0000.0,0004.00,0001.97,0001.70
2023-11-01 17:17:00,SystemResetWarning,0832.5,5.00,000.00,022.5,021.6,000.0,030.8,023.9,11.3,0000.0,0004.02,0001.97,0001.68
2023-11-01 17:18:00,SystemResetWarning,0832.5,5.00,000.00,022.5,021.6,000.0,030.8,023.9,12.0,0000.0,0004.01,0001.95,0001.65
2023-11-01 17:19:00,SystemResetWarning,0832.5,5.00,000.00,022.5,021.6,000.0,030.8,023.9,11.7,0000.0,0003.87,0001.87,0001.61
2023-11-01 17:20:00,SystemResetWarning,0832.4,5.00,000.00,022.5,021.6,000.0,030.8,023.9,11.5,0000.0,0003.70,0001.79,0001.57
2023-11-01 17:21:00,SystemResetWarning,0832.4,5.00,000.00,022.5,021.6,000.0,030.8,023.9,11.7,0000.0,0003.56,0001.73,0001.54
2023-11-01 17:22:00,SystemResetWarning,0832.5,5.00,000.00,022.5,021.6,000.0,030.8,023.9,12.1,0000.0,0003.17,0001.69,0001.52
2023-11-01 17:23:00,SystemResetWarning,0832.4,5.00,000.00,022.5,021.6,000.0,030.8,023.9,12.2,0000.0,0002.29,0001.68,0001.52
2023-11-01 17:24:00,SystemResetWarning,0832.4,5.00,000.00,022.5,021.6,000.0,030.8,024.0,11.0,0000.0,0002.05,0001.66,0001.51
2023-11-01 17:25:00,SystemResetWarning,0832.4,5.00,000.00,022.5,021.6,000.0,030.8,024.0,11.1,0000.0,0002.15,0001.68,0001.51
2023-11-01 17:26:00,SystemResetWarning,0832.3,5.00,000.00,022.5,021.6,000.0,030.8,023.9,10.3,0000.0,0002.18,0001.70,0001.52
2023-11-01 17:27:00,SystemResetWarning,0832.3,5.01,000.00,022.5,021.6,000.0,030.9,023.9,11.0,0000.0,0002.14,0001.68,0001.53
2023-11-01 17:28:00,SystemResetWarning,0832.3,5.01,000.00,022.5,021.6,000.0,030.9,024.0,11.2,0000.0,0002.08,0001.66,0001.53
2023-11-01 17:29:00,SystemResetWarning,0832.3,5.00,000.00,022.5,021.6,000.0,030.9,023.9,10.1,0000.0,0002.07,0001.69,0001.54
2023-11-01 17:30:00,SystemResetWarning,0832.4,5.00,000.00,022.5,021.6,000.0,030.9,023.9,10.6,0000.0,0002.10,0001.72,0001.57
2023-11-01 17:31:00,SystemResetWarning,0832.4,5.01,000.00,022.5,021.6,000.0,030.9,024.0,11.2,0000.0,0002.12,0001.75,0001.60
2023-11-01 17:32:00,SystemResetWarning,0832.3,5.01,000.00,022.6,021.6,000.0,030.9,024.0,11.8,0000.0,0002.14,0001.75,0001.60
2023-11-01 17:33:00,SystemResetWarning,0832.3,5.00,000.00,022.6,021.6,000.0,030.9,024.0,11.5,0000.0,0002.13,0001.73,0001.57
2023-11-01 17:34:00,SystemResetWarning,0832.3,5.00,000.00,022.6,021.7,000.0,030.9,024.0,11.1,0000.0,0002.09,0001.69,0001.52
2023-11-01 17:35:00,SystemResetWarning,0832.3,4.99,000.00,022.6,021.7,000.0,030.9,024.0,10.6,0000.0,0001.96,0001.62,0001.46
2023-11-01 17:36:00,SystemResetWarning,0832.4,5.00,000.00,022.6,021.7,000.0,030.9,024.0,11.2,0000.0,0001.80,0001.54,0001.40
2023-11-01 17:37:00,SystemResetWarning,0832.4,5.00,000.00,022.6,021.7,000.0,030.9,024.1,11.7,0000.0,0001.70,0001.46,0001.32
2023-11-01 17:38:00,SystemResetWarning,0832.4,5.00,000.00,022.6,021.7,000.0,030.9,024.1,14.3,0000.0,0001.62,0001.38,0001.25
2023-11-01 17:39:00,SystemResetWarning,0832.4,5.00,000.00,022.6,021.8,000.0,030.9,024.0,14.8,0000.0,0001.58,0001.34,0001.20
2023-11-01 17:40:00,SystemResetWarning,0832.4,5.00,000.00,022.6,021.8,000.0,030.9,024.1,15.4,0000.0,0001.52,0001.27,0001.13
2023-11-01 17:41:00,SystemResetWarning,0832.4,5.00,000.00,022.6,021.8,000.0,030.9,024.1,15.3,0000.0,0001.47,0001.19,0001.05
2023-11-01 17:42:00,SystemResetWarning,0832.3,5.00,000.00,022.6,021.8,000.0,030.9,024.1,14.8,0000.0,0001.77,0001.14,0000.98
2023-11-01 17:43:00,SystemResetWarning,0832.3,5.00,000.00,022.7,021.8,000.0,030.9,024.1,15.0,0000.0,0001.97,0001.09,0000.93
2023-11-01 17:44:00,SystemResetWarning,0832.3,4.99,000.00,022.7,021.8,000.0,031.0,024.1,14.6,0000.0,0002.18,0001.06,0000.90
2023-11-01 17:45:00,SystemResetWarning,0832.3,5.00,000.00,022.7,021.8,000.0,031.0,024.1,14.5,0000.0,0002.17,0001.01,0000.87
2023-11-01 17:46:00,SystemResetWarning,0832.3,5.00,000.00,022.7,021.8,000.0,031.0,024.1,13.4,0000.0,0002.16,0001.00,0000.86
2023-11-01 17:47:00,SystemResetWarning,0832.3,5.00,000.00,022.7,021.9,000.0,031.0,024.1,12.3,0000.0,0002.19,0001.00,0000.85
2023-11-01 17:48:00,SystemResetWarning,0832.3,5.00,000.00,022.7,021.9,000.0,031.0,024.2,13.1,0000.0,0002.21,0001.00,0000.85
2023-11-01 17:49:00,SystemResetWarning,0832.3,5.00,000.00,022.7,021.9,000.0,031.0,024.2,12.5,0000.0,0002.19,0000.99,0000.83
2023-11-01 17:50:00,SystemResetWarning,0832.3,5.00,000.00,022.7,021.9,000.0,031.0,024.2,13.1,0000.0,0002.18,0000.95,0000.79
2023-11-01 17:51:00,SystemResetWarning,0832.3,5.00,000.00,022.7,021.9,000.0,031.0,024.2,13.0,0000.0,0002.12,0000.91,0000.76
2023-11-01 17:52:00,SystemResetWarning,0832.3,5.00,000.00,022.7,021.9,000.0,031.0,024.2,12.3,0000.0,0002.07,0000.89,0000.76
2023-11-01 17:53:00,SystemResetWarning,0832.3,5.00,000.00,022.7,021.9,000.0,031.0,024.2,12.4,0000.0,0001.66,0000.85,0000.73
2023-11-01 17:54:00,SystemResetWarning,0832.3,5.00,000.00,022.7,021.9,000.0,031.0,024.2,12.4,0000.0,0001.43,0000.84,0000.71
2023-11-01 17:55:00,SystemResetWarning,0832.3,5.00,000.00,022.8,022.0,000.0,031.1,024.3,12.3,0000.0,0001.31,0000.84,0000.72
2023-11-01 17:56:00,SystemResetWarning,0832.2,5.00,000.00,022.8,022.0,000.0,031.1,024.3,12.8,0000.0,0001.24,0000.86,0000.72
2023-11-01 17:57:00,SystemResetWarning,0832.2,4.99,000.00,022.8,022.0,000.0,031.1,024.3,14.8,0000.0,0001.43,0000.88,0000.72
2023-11-01 17:58:00,SystemResetWarning,0832.2,5.00,000.00,022.8,022.0,000.0,031.1,024.3,16.1,0000.0,0001.40,0000.87,0000.72
2023-11-01 17:59:00,SystemResetWarning,0832.2,5.00,000.00,022.8,022.0,000.0,031.1,024.3,16.6,0000.0,0001.37,0000.85,0000.71
